Temp
74 71 69 65 63 63 68 69 71 71 71 72 71 68 68 70 71 74 79 76 76 82
70 71 70 68 67 64 63 63 63 64 63 63 63 62 63 62 62 68 73 77 76 79
65 65 67 67 65 63 63 62 61 59 59 61 65 64 62 63 69 70 72 73 69 72
67 68 68 65 64 64 63 63 62 61 62 64 63 64 65 70 70 68 72 72 73 72
67 67 66 64 64 63 63 62 62 63 64 64 64 66 69 68 72 72 67 71 69 70
67 66 65 64 63 63 63 66 66 65 64 67 65 66 69 69 70 70 72 72 72 74
69 65 65 68 66 65 67 68 71 70 67 69 70 70 70 70 70 71 72 74 75 74
73 73 71 72 71 70 69 71 71 70 71 72 72 74 71 71 72 72 72 73 74 75
75 74 74 73 73 72 73 73 72 72 72 72 75 70 67 69 73 73 73 72 74 75
75 74 74 74 74 73 73 74 73 74 74 74 74 68 66 67 72 72 73 73 74 76
76 76 75 75 75 75 76 75 75 74 76 75 77 67 64 65 72 73 73 75 76 73
77 76 76 75 75 76 75 74 70 73 72 72 76 67 63 65 73 74 75 76 78 79
76 75 75 75 74 73 73 74 77 76 76 73 74 67 62 64 76 74 78 78 79 70
76 75 75 75 75 74 74 74 73 74 74 74 73 74 62 59 73 76 77 79 80 80
MSLP
1018.06 1018.35 1018.37 1018.33 1018.86 1018.38 1016.20 1018.01 1019.65 1019.66 1019.71 1019.54 1019.72 1020.02 1020.07 1020.10 1019.70 1020.28 1020.50 1019.93 1019.58 1018.61
1018.60 1019.36 1019.33 1018.94 1017.93 1017.86 1019.23 1020.28 1020.26 1020.94 1021.10 1020.81 1020.82 1020.77 1020.79 1020.94 1020.93 1021.16 1021.28 1020.32 1020.12 1019.59
1018.02 1019.31 1019.36 1019.14 1019.41 1018.92 1019.42 1019.91 1020.62 1021.17 1020.64 1021.34 1021.95 1021.27 1021.57 1021.07 1021.00 1021.52 1021.25 1020.67 1020.36 1020.05
1018.49 1019.50 1019.53 1019.59 1019.62 1019.46 1020.36 1020.78 1021.23 1021.60 1021.61 1020.76 1021.27 1021.97 1021.48 1021.05 1021.36 1021.35 1021.00 1020.58 1020.02 1019.93
1019.14 1019.11 1019.65 1019.73 1019.82 1020.05 1020.83 1020.98 1021.03 1021.06 1021.25 1021.27 1021.36 1021.39 1021.24 1021.12 1021.16 1021.21 1020.98 1020.44 1020.14 1020.02
1018.91 1019.28 1019.56 1019.68 1020.18 1020.64 1020.94 1020.93 1020.83 1021.13 1021.29 1021.27 1020.95 1020.98 1021.28 1020.87 1020.72 1020.77 1020.47 1020.41 1020.35 1020.05
1018.61 1019.43 1019.79 1020.21 1020.39 1020.55 1020.65 1020.76 1020.77 1021.13 1021.29 1021.08 1021.05 1020.93 1020.92 1020.92 1020.84 1020.56 1020.18 1020.03 1019.89 1019.84
1018.37 1018.76 1019.32 1019.60 1019.77 1020.09 1020.36 1020.58 1020.82 1020.87 1020.72 1020.54 1020.57 1020.43 1020.56 1020.63 1020.41 1020.17 1019.88 1019.88 1019.73 1019.44
1018.10 1018.45 1018.75 1019.33 1019.54 1019.78 1019.96 1020.05 1020.25 1020.28 1020.25 1020.11 1019.97 1019.88 1020.01 1020.31 1020.15 1020.03 1019.64 1019.45 1019.17 1018.90
1018.16 1018.35 1018.57 1018.85 1019.36 1019.44 1019.60 1019.68 1019.71 1019.60 1019.50 1019.45 1019.48 1019.55 1019.83 1019.92 1020.11 1019.80 1019.26 1019.01 1018.71 1018.56
1017.93 1018.03 1018.17 1018.27 1018.57 1018.85 1018.87 1018.81 1018.87 1018.76 1018.72 1018.72 1018.78 1018.82 1019.18 1019.42 1019.49 1019.16 1018.70 1018.20 1017.77 1017.61
1017.61 1017.72 1017.74 1017.87 1018.01 1018.43 1018.37 1018.42 1018.49 1018.24 1018.20 1018.15 1018.09 1018.21 1018.59 1018.91 1018.65 1018.21 1017.62 1016.97 1016.44 1016.34
1017.50 1017.76 1017.74 1017.81 1018.01 1018.19 1018.33 1018.16 1017.97 1017.71 1017.66 1017.62 1017.75 1017.87 1018.01 1018.15 1017.81 1017.17 1016.45 1015.86 1015.50 1015.49
1017.48 1017.69 1017.80 1017.84 1017.95 1017.98 1017.98 1017.95 1017.79 1017.54 1017.35 1017.22 1017.04 1017.03 1017.10 1017.20 1017.26 1016.78 1015.99 1015.34 1014.76 1014.71
Wind_Speed
11 7 6 8 11 12 7 9 6 7 7 9 9 7 9 8 8 7 5 7 8 7
9 6 5 6 9 11 8 5 6 7 8 8 8 9 8 5 6 7 6 6 7 7
9 5 4 4 6 8 7 8 6 8 6 5 1 5 2 3 3 4 5 2 3 4
8 7 6 6 7 8 6 6 6 4 3 3 0 4 6 2 4 5 4 5 1 3
8 8 7 7 7 6 5 4 5 5 4 5 5 5 5 4 2 5 4 6 6 5
9 8 7 8 6 5 5 5 5 6 6 6 4 3 5 4 4 5 5 6 7 8
7 8 9 9 9 6 4 5 6 6 6 6 5 6 5 6 6 7 8 7 7 8
9 7 8 7 7 7 7 6 5 6 6 6 6 6 8 8 8 7 7 8 9 10
8 7 7 5 6 6 5 5 6 7 7 7 7 7 5 6 8 10 10 10 10 10
7 7 6 6 5 6 7 7 8 8 8 9 9 10 10 10 9 11 12 13 12 11
7 7 7 6 6 6 6 7 7 7 8 8 9 8 10 11 11 12 13 14 13 13
5 4 4 5 4 5 6 6 4 8 7 8 9 8 8 9 11 12 15 15 13 12
3 4 5 4 4 4 6 8 8 9 8 9 10 10 8 11 9 12 12 11 13 12
4 4 5 5 6 7 8 8 9 9 9 10 11 11 10 12 10 11 11 11 11 9
Wind_Direction
47 51 66 75 70 53 20 64 78 85 78 73 61 39 23 13 18 24 353 18 8 336
61 51 59 81 109 104 116 108 89 45 49 40 41 47 46 45 28 358 332 355 17 337
126 161 101 95 88 79 89 101 116 131 105 59 268 93 109 111 198 223 311 355 35 346
134 147 102 91 84 87 102 120 99 119 182 137 274 230 213 184 211 223 229 236 343 319
136 113 124 118 100 102 134 153 177 217 231 229 212 225 207 201 250 282 337 345 340 322
131 133 128 119 129 155 180 197 212 234 228 215 187 211 248 272 284 295 274 282 261 280
130 134 152 152 162 179 184 213 209 214 212 213 230 226 238 248 255 257 257 267 296 295
143 139 148 166 154 167 177 195 201 215 221 232 236 232 232 248 258 276 281 273 272 272
140 148 143 158 168 179 199 216 225 246 251 249 256 255 238 263 272 275 282 280 274 265
150 155 162 164 188 201 212 227 240 244 246 255 251 227 220 226 254 267 273 274 279 291
174 178 174 185 202 228 243 240 247 257 261 258 267 221 205 213 252 264 263 261 255 248
189 211 216 224 234 260 283 286 294 258 233 238 269 238 215 203 256 254 249 249 253 259
217 246 256 269 274 284 260 252 270 280 289 287 277 268 223 208 261 258 267 281 266 243
232 247 258 269 278 282 279 288 283 285 283 278 267 261 240 206 249 265 271 281 297 294